Time,TemperatureF,DewpointF,PressureIn,WindDirection,WindDirectionDegrees,WindSpeedMPH,WindSpeedGustMPH,Humidity,HourlyPrecipIn,Conditions,Clouds,dailyrainin,SoftwareType,DateUTC
2013-10-16 00:00:00,50.9,-99.9,-100.00,NNW,335,0.0,0.0,-999,0.00,,---,0.00,VWS V14.01,2013-10-16 04:00:00,
2013-10-16 00:01:00,50.7,-99.9,-100.00,NNW,335,0.0,0.0,-999,0.00,,---,0.00,VWS V14.01,2013-10-16 04:01:00,
2013-10-16 17:48:00,61.4,-99.9,-100.00,WSW,249,4.3,4.3,-999,0.00,,---,1.28,VWS V14.01,2013-10-16 21:48:00,
2013-10-16 17:53:00,61.6,-99.9,-100.00,WSW,242,5.8,5.9,-999,0.00,,---,1.31,VWS V14.01,2013-10-16 21:53:00,
2013-10-16 17:58:00,60.8,-99.9,-100.00,West,259,0.0,0.0,-999,0.00,,---,1.37,VWS V14.01,2013-10-16 21:58:00,
2013-10-16 17:59:00,61.1,-99.9,-100.00,WSW,240,6.0,6.0,-999,0.00,,---,1.38,VWS V14.01,2013-10-16 21:59:00,
2013-10-16 18:03:00,61.1,-99.9,-100.00,SW,236,3.5,3.5,-999,0.00,,---,1.40,VWS V14.01,2013-10-16 22:03:00,
2013-10-16 18:04:00,61.1,-99.9,-100.00,SSW,207,0.0,5.7,-999,0.00,,---,1.40,VWS V14.01,2013-10-16 22:04:00,
2013-10-16 18:08:00,60.8,-99.9,-100.00,SW,219,0.0,0.0,-999,0.00,,---,1.40,VWS V14.01,2013-10-16 22:08:00,
2013-10-16 18:09:00,61.1,-99.9,-100.00,SW,219,0.0,0.0,-999,0.00,,---,1.40,VWS V14.01,2013-10-16 22:09:00,
2013-10-16 18:13:00,60.8,-99.9,-100.00,WSW,248,0.0,0.0,-999,0.00,,---,1.40,VWS V14.01,2013-10-16 22:13:00,
2013-10-16 18:14:00,60.8,-99.9,-100.00,WSW,248,0.0,0.0,-999,0.00,,---,1.40,VWS V14.01,2013-10-16 22:14:00,
2013-10-16 18:18:00,60.8,-99.9,-100.00,SSW,197,0.0,0.0,-999,0.00,,---,1.40,VWS V14.01,2013-10-16 22:18:00,
2013-10-16 18:19:00,60.8,-99.9,-100.00,SSW,197,0.0,0.0,-999,0.00,,---,1.40,VWS V14.01,2013-10-16 22:19:00,
2013-10-16 18:20:00,60.9,-99.9,-100.00,SSW,197,0.0,0.0,-999,0.00,,---,1.40,VWS V14.01,2013-10-16 22:20:00,
2013-10-16 18:23:00,60.9,-99.9,-100.00,SW,219,0.0,6.0,-999,0.00,,---,1.40,VWS V14.01,2013-10-16 22:23:00,
2013-10-16 18:24:00,60.6,-99.9,-100.00,SW,219,0.0,6.0,-999,0.00,,---,1.40,VWS V14.01,2013-10-16 22:24:00,
2013-10-16 18:25:00,61.0,-99.9,-100.00,SW,215,3.4,6.3,-999,0.00,,---,1.40,VWS V14.01,2013-10-16 22:25:00,
2013-10-16 18:28:00,61.2,-99.9,-100.00,SW,224,0.0,0.0,-999,0.00,,---,1.40,VWS V14.01,2013-10-16 22:28:00,
2013-10-16 18:29:00,61.3,-99.9,-100.00,SW,224,0.0,0.0,-999,0.00,,---,1.40,VWS V14.01,2013-10-16 22:29:00,
2013-10-16 18:30:00,60.7,-99.9,-100.00,West,262,0.0,4.7,-999,0.00,,---,1.40,VWS V14.01,2013-10-16 22:30:00,
2013-10-16 18:34:00,61.2,-99.9,-100.00,South,186,0.0,0.0,-999,0.00,,---,1.40,VWS V14.01,2013-10-16 22:34:00,
2013-10-16 18:35:00,60.3,-99.9,-100.00,WSW,239,0.0,0.0,-999,0.00,,---,1.40,VWS V14.01,2013-10-16 22:35:00,
2013-10-16 18:39:00,60.6,-99.9,-100.00,WSW,238,0.0,4.8,-999,0.00,,---,1.40,VWS V14.01,2013-10-16 22:39:00,
2013-10-16 18:40:00,60.6,-99.9,-100.00,South,183,0.0,5.7,-999,0.00,,---,1.40,VWS V14.01,2013-10-16 22:40:00,
2013-10-16 18:44:00,60.3,-99.9,-100.00,WSW,238,0.0,0.0,-999,0.00,,---,1.40,VWS V14.01,2013-10-16 22:44:00,
2013-10-16 18:45:00,60.6,-99.9,-100.00,WSW,238,0.0,0.0,-999,0.00,,---,1.40,VWS V14.01,2013-10-16 22:45:00,
2013-10-16 18:46:00,60.6,-99.9,-100.00,SSW,200,0.0,3.3,-999,0.00,,---,1.40,VWS V14.01,2013-10-16 22:46:00,
2013-10-16 18:49:00,60.6,-99.9,-100.00,SSW,210,0.0,3.3,-999,0.00,,---,1.40,VWS V14.01,2013-10-16 22:49:00,
2013-10-16 18:50:00,60.6,-99.9,-100.00,SW,215,0.0,5.4,-999,0.00,,---,1.40,VWS V14.01,2013-10-16 22:50:00,
2013-10-16 18:51:00,59.7,-99.9,-100.00,SW,215,0.0,0.0,-999,0.00,,---,1.40,VWS V14.01,2013-10-16 22:51:00,
2013-10-16 18:52:00,61.4,-99.9,-100.00,SSW,210,3.2,6.0,-999,0.00,,---,1.30,VWS V14.01,2013-10-16 22:52:00,
2013-10-16 18:53:00,61.4,-99.9,-100.00,SW,236,4.9,8.1,-999,0.00,,---,1.31,VWS V14.01,2013-10-16 22:53:00,
2013-10-16 18:54:00,60.3,-99.9,-100.00,SW,215,0.0,0.0,-999,0.00,,---,1.40,VWS V14.01,2013-10-16 22:54:00,
2013-10-16 18:55:00,60.3,-99.9,-100.00,SW,215,0.0,0.0,-999,0.00,,---,1.40,VWS V14.01,2013-10-16 22:55:00,
2013-10-16 18:56:00,60.3,-99.9,-100.00,SW,215,0.0,0.0,-999,0.00,,---,1.40,VWS V14.01,2013-10-16 22:56:00,
2013-10-16 18:57:00,61.4,-99.9,-100.00,WSW,243,0.0,3.2,-999,0.00,,---,1.33,VWS V14.01,2013-10-16 22:57:00,
2013-10-16 18:58:00,61.1,-99.9,-100.00,WSW,238,4.6,6.3,-999,0.00,,---,1.35,VWS V14.01,2013-10-16 22:58:00,
2013-10-16 18:59:00,60.0,-99.9,-100.00,WSW,249,0.0,0.0,-999,0.00,,---,1.40,VWS V14.01,2013-10-16 22:59:00,
2013-10-16 19:00:00,60.3,-99.9,-100.00,SW,219,3.4,5.9,-999,0.00,,---,1.40,VWS V14.01,2013-10-16 23:00:00,
2013-10-16 19:01:00,59.7,-99.9,-100.00,SW,224,0.0,0.0,-999,0.00,,---,1.40,VWS V14.01,2013-10-16 23:01:00,
2013-10-16 19:02:00,61.1,-99.9,-100.00,SW,232,0.0,5.3,-999,0.00,,---,1.40,VWS V14.01,2013-10-16 23:02:00,
2013-10-16 19:03:00,61.1,-99.9,-100.00,SSW,205,3.4,6.0,-999,0.00,,---,1.40,VWS V14.01,2013-10-16 23:03:00,
2013-10-16 19:04:00,60.3,-99.9,-100.00,SW,224,0.0,0.0,-999,0.00,,---,1.40,VWS V14.01,2013-10-16 23:04:00,
2013-10-16 19:05:00,60.3,-99.9,-100.00,SW,224,0.0,0.0,-999,0.00,,---,1.40,VWS V14.01,2013-10-16 23:05:00,
2013-10-16 19:06:00,60.0,-99.9,-100.00,SW,224,0.0,0.0,-999,0.00,,---,1.40,VWS V14.01,2013-10-16 23:06:00,
2013-10-16 19:07:00,61.4,-99.9,-100.00,SSW,207,0.0,0.0,-999,0.00,,---,1.40,VWS V14.01,2013-10-16 23:07:00,
2013-10-16 19:08:00,61.1,-99.9,-100.00,WSW,240,4.2,5.2,-999,0.00,,---,1.40,VWS V14.01,2013-10-16 23:08:00,
2013-10-16 19:09:00,59.4,-99.9,-100.00,SW,224,0.0,0.0,-999,0.00,,---,1.40,VWS V14.01,2013-10-16 23:09:00,
2013-10-16 19:10:00,59.7,-99.9,-100.00,SW,224,0.0,0.0,-999,0.00,,---,1.40,VWS V14.01,2013-10-16 23:10:00,
2013-10-16 19:11:00,59.7,-99.9,-100.00,SW,224,0.0,0.0,-999,0.00,,---,1.40,VWS V14.01,2013-10-16 23:11:00,
2013-10-16 19:12:00,59.7,-99.9,-100.00,SW,224,0.0,0.0,-999,0.00,,---,1.40,VWS V14.01,2013-10-16 23:12:00,
2013-10-16 19:13:00,60.8,-99.9,-100.00,SW,219,0.0,0.0,-999,0.00,,---,1.40,VWS V14.01,2013-10-16 23:13:00,
2013-10-16 19:14:00,59.4,-99.9,-100.00,SW,224,0.0,0.0,-999,0.00,,---,1.40,VWS V14.01,2013-10-16 23:14:00,
2013-10-16 19:15:00,59.7,-99.9,-100.00,SW,224,0.0,0.0,-999,0.00,,---,1.40,VWS V14.01,2013-10-16 23:15:00,
2013-10-16 19:16:00,59.4,-99.9,-100.00,SW,224,0.0,0.0,-999,0.00,,---,1.40,VWS V14.01,2013-10-16 23:16:00,
2013-10-16 19:17:00,59.4,-99.9,-100.00,SW,224,0.0,0.0,-999,0.00,,---,1.40,VWS V14.01,2013-10-16 23:17:00,
2013-10-16 19:18:00,61.4,-99.9,-100.00,SSW,197,0.0,0.0,-999,0.00,,---,1.40,VWS V14.01,2013-10-16 23:18:00,
2013-10-16 19:19:00,59.4,-99.9,-100.00,SW,224,0.0,0.0,-999,0.00,,---,1.40,VWS V14.01,2013-10-16 23:19:00,
2013-10-16 19:20:00,59.4,-99.9,-100.00,SW,224,0.0,0.0,-999,0.00,,---,1.40,VWS V14.01,2013-10-16 23:20:00,
2013-10-16 19:21:00,59.4,-99.9,-100.00,SW,224,0.0,0.0,-999,0.00,,---,1.40,VWS V14.01,2013-10-16 23:21:00,
2013-10-16 19:22:00,59.4,-99.9,-100.00,SW,224,0.0,0.0,-999,0.00,,---,1.40,VWS V14.01,2013-10-16 23:22:00,
2013-10-16 19:23:00,60.8,-99.9,-100.00,SSW,197,0.0,0.0,-999,0.00,,---,1.40,VWS V14.01,2013-10-16 23:23:00,
2013-10-16 19:24:00,59.4,-99.9,-100.00,SW,224,0.0,0.0,-999,0.00,,---,1.40,VWS V14.01,2013-10-16 23:24:00,
2013-10-16 19:25:00,59.3,-99.9,-100.00,SW,224,0.0,0.0,-999,0.00,,---,1.40,VWS V14.01,2013-10-16 23:25:00,
2013-10-16 19:26:00,59.4,-99.9,-100.00,WSW,242,0.0,4.3,-999,0.00,,---,1.40,VWS V14.01,2013-10-16 23:26:00,
2013-10-16 19:27:00,59.1,-99.9,-100.00,WSW,242,0.0,0.0,-999,0.00,,---,1.40,VWS V14.01,2013-10-16 23:27:00,
2013-10-16 19:28:00,60.9,-99.9,-100.00,SW,235,3.2,5.7,-999,0.00,,---,1.40,VWS V14.01,2013-10-16 23:28:00,
2013-10-16 19:29:00,60.9,-99.9,-100.00,SW,235,0.0,3.2,-999,0.00,,---,1.40,VWS V14.01,2013-10-16 23:29:00,
2013-10-16 19:30:00,58.8,-99.9,-100.00,WSW,242,0.0,0.0,-999,0.00,,---,1.40,VWS V14.01,2013-10-16 23:30:00,
2013-10-16 19:31:00,58.5,-99.9,-100.00,WSW,242,0.0,3.0,-999,0.00,,---,1.40,VWS V14.01,2013-10-16 23:31:00,
2013-10-16 19:32:00,58.8,-99.9,-100.00,WSW,242,0.0,3.0,-999,0.00,,---,1.40,VWS V14.01,2013-10-16 23:32:00,
2013-10-16 19:33:00,58.5,-99.9,-100.00,WSW,242,0.0,2.9,-999,0.00,,---,1.40,VWS V14.01,2013-10-16 23:33:00,
2013-10-16 19:34:00,61.2,-99.9,-100.00,South,186,0.0,2.9,-999,0.00,,---,1.40,VWS V14.01,2013-10-16 23:34:00,
2013-10-16 19:35:00,58.2,-99.9,-100.00,WSW,242,0.0,0.0,-999,0.00,,---,1.40,VWS V14.01,2013-10-16 23:35:00,
2013-10-16 19:36:00,61.2,-99.9,-100.00,South,186,0.0,0.0,-999,0.00,,---,1.40,VWS V14.01,2013-10-16 23:36:00,
2013-10-16 19:37:00,58.0,-99.9,-100.00,WSW,242,0.0,0.0,-999,0.00,,---,1.40,VWS V14.01,2013-10-16 23:37:00,
2013-10-16 19:38:00,58.0,-99.9,-100.00,WSW,242,0.0,0.0,-999,0.00,,---,1.40,VWS V14.01,2013-10-16 23:38:00,
2013-10-16 19:39:00,61.2,-99.9,-100.00,WSW,239,0.0,0.0,-999,0.00,,---,1.40,VWS V14.01,2013-10-16 23:39:00,
2013-10-16 19:40:00,58.0,-99.9,-100.00,WSW,242,0.0,0.0,-999,0.00,,---,1.40,VWS V14.01,2013-10-16 23:40:00,
2013-10-16 19:41:00,60.6,-99.9,-100.00,SSW,198,5.7,5.7,-999,0.00,,---,1.40,VWS V14.01,2013-10-16 23:41:00,
2013-10-16 19:42:00,58.0,-99.9,-100.00,WSW,242,0.0,0.0,-999,0.00,,---,1.40,VWS V14.01,2013-10-16 23:42:00,
2013-10-16 19:43:00,58.0,-99.9,-100.00,WSW,242,0.0,0.0,-999,0.00,,---,1.40,VWS V14.01,2013-10-16 23:43:00,
2013-10-16 19:44:00,60.6,-99.9,-100.00,SSW,200,4.5,4.5,-999,0.00,,---,1.40,VWS V14.01,2013-10-16 23:44:00,
2013-10-16 19:45:00,58.0,-99.9,-100.00,WSW,242,0.0,0.0,-999,0.00,,---,1.40,VWS V14.01,2013-10-16 23:45:00,
2013-10-16 19:46:00,60.3,-99.9,-100.00,WSW,238,0.0,0.0,-999,0.00,,---,1.40,VWS V14.01,2013-10-16 23:46:00,
2013-10-16 19:47:00,57.7,-99.9,-100.00,WSW,242,0.0,0.0,-999,0.00,,---,1.40,VWS V14.01,2013-10-16 23:47:00,
2013-10-16 19:48:00,57.4,-99.9,-100.00,WSW,242,0.0,0.0,-999,0.00,,---,1.40,VWS V14.01,2013-10-16 23:48:00,
2013-10-16 19:49:00,60.9,-99.9,-100.00,WSW,252,5.8,5.8,-999,0.00,,---,1.40,VWS V14.01,2013-10-16 23:49:00,
2013-10-16 19:50:00,57.4,-99.9,-100.00,WSW,242,0.0,0.0,-999,0.00,,---,1.40,VWS V14.01,2013-10-16 23:50:00,
2013-10-16 19:51:00,60.3,-99.9,-100.00,SSW,202,5.4,5.4,-999,0.00,,---,1.40,VWS V14.01,2013-10-16 23:51:00,
2013-10-16 19:52:00,57.7,-99.9,-100.00,WSW,242,0.0,0.0,-999,0.00,,---,1.40,VWS V14.01,2013-10-16 23:52:00,
2013-10-16 19:53:00,57.2,-99.9,-100.00,WSW,242,0.0,0.0,-999,0.00,,---,1.40,VWS V14.01,2013-10-16 23:53:00,
2013-10-16 19:54:00,60.3,-99.9,-100.00,SW,215,0.0,0.0,-999,0.00,,---,1.40,VWS V14.01,2013-10-16 23:54:00,
2013-10-16 19:55:00,57.4,-99.9,-100.00,WNW,298,0.0,0.0,-999,0.00,,---,1.40,VWS V14.01,2013-10-16 23:55:00,
2013-10-16 19:56:00,60.3,-99.9,-100.00,SW,215,0.0,0.0,-999,0.00,,---,1.40,VWS V14.01,2013-10-16 23:56:00,
2013-10-16 19:57:00,57.2,-99.9,-100.00,WNW,298,0.0,0.0,-999,0.00,,---,1.40,VWS V14.01,2013-10-16 23:57:00,
2013-10-16 19:58:00,57.2,-99.9,-100.00,WNW,298,0.0,0.0,-999,0.00,,---,1.40,VWS V14.01,2013-10-16 23:58:00,
2013-10-16 19:59:00,57.2,-99.9,-100.00,WNW,298,0.0,0.0,-999,0.00,,---,1.40,VWS V14.01,2013-10-16 23:59:00,
2013-10-16 20:00:00,59.7,-99.9,-100.00,WSW,249,0.0,3.0,-999,0.00,,---,1.40,VWS V14.01,2013-10-17 00:00:00,
2013-10-16 20:01:00,57.2,-99.9,-100.00,WNW,298,0.0,0.0,-999,0.00,,---,1.40,VWS V14.01,2013-10-17 00:01:00,
2013-10-16 20:02:00,57.2,-99.9,-100.00,WNW,298,0.0,0.0,-999,0.00,,---,1.40,VWS V14.01,2013-10-17 00:02:00,
2013-10-16 20:03:00,57.2,-99.9,-100.00,WNW,298,0.0,0.0,-999,0.00,,---,1.40,VWS V14.01,2013-10-17 00:03:00,
2013-10-16 20:04:00,57.2,-99.9,-100.00,WNW,298,0.0,0.0,-999,0.00,,---,1.40,VWS V14.01,2013-10-17 00:04:00,
2013-10-16 20:05:00,60.3,-99.9,-100.00,SW,224,0.0,0.0,-999,0.00,,---,1.40,VWS V14.01,2013-10-17 00:05:00,
2013-10-16 20:06:00,57.2,-99.9,-100.00,SW,236,0.0,1.4,-999,0.00,,---,1.40,VWS V14.01,2013-10-17 00:06:00,
2013-10-16 20:07:00,57.2,-99.9,-100.00,SW,236,0.0,0.0,-999,0.00,,---,1.40,VWS V14.01,2013-10-17 00:07:00,
2013-10-16 20:08:00,57.2,-99.9,-100.00,SW,236,0.0,0.0,-999,0.00,,---,1.40,VWS V14.01,2013-10-17 00:08:00,
2013-10-16 20:09:00,56.9,-99.9,-100.00,SW,236,0.0,0.0,-999,0.00,,---,1.40,VWS V14.01,2013-10-17 00:09:00,
2013-10-16 20:10:00,59.4,-99.9,-100.00,SW,224,0.0,0.0,-999,0.00,,---,1.40,VWS V14.01,2013-10-17 00:10:00,
2013-10-16 20:11:00,56.9,-99.9,-100.00,SW,236,0.0,0.0,-999,0.00,,---,1.40,VWS V14.01,2013-10-17 00:11:00,
2013-10-16 20:12:00,56.6,-99.9,-100.00,SW,236,0.0,0.0,-999,0.00,,---,1.40,VWS V14.01,2013-10-17 00:12:00,
2013-10-16 20:13:00,56.9,-99.9,-100.00,WSW,246,0.0,3.0,-999,0.00,,---,1.40,VWS V14.01,2013-10-17 00:13:00,
2013-10-16 20:14:00,56.9,-99.9,-100.00,WSW,246,0.0,0.0,-999,0.00,,---,1.40,VWS V14.01,2013-10-17 00:14:00,
2013-10-16 20:15:00,59.7,-99.9,-100.00,SW,224,0.0,0.0,-999,0.00,,---,1.40,VWS V14.01,2013-10-17 00:15:00,
2013-10-16 20:16:00,56.6,-99.9,-100.00,WSW,246,0.0,0.0,-999,0.00,,---,1.40,VWS V14.01,2013-10-17 00:16:00,
2013-10-16 20:17:00,56.6,-99.9,-100.00,WSW,246,0.0,0.0,-999,0.00,,---,1.40,VWS V14.01,2013-10-17 00:17:00,
2013-10-16 20:18:00,59.7,-99.9,-100.00,SW,224,0.0,0.0,-999,0.00,,---,1.40,VWS V14.01,2013-10-17 00:18:00,
2013-10-16 20:19:00,56.6,-99.9,-100.00,WSW,246,0.0,0.0,-999,0.00,,---,1.40,VWS V14.01,2013-10-17 00:19:00,
2013-10-16 20:20:00,56.4,-99.9,-100.00,WSW,246,0.0,0.0,-999,0.00,,---,1.40,VWS V14.01,2013-10-17 00:20:00,
2013-10-16 20:21:00,57.2,-99.9,-100.00,WSW,246,0.0,0.0,-999,0.00,,---,1.40,VWS V14.01,2013-10-17 00:21:00,
2013-10-16 20:22:00,59.4,-99.9,-100.00,SW,224,0.0,0.0,-999,0.00,,---,1.40,VWS V14.01,2013-10-17 00:22:00,
2013-10-16 20:23:00,56.6,-99.9,-100.00,WSW,246,0.0,0.0,-999,0.00,,---,1.40,VWS V14.01,2013-10-17 00:23:00,
2013-10-16 20:24:00,56.6,-99.9,-100.00,WSW,246,0.0,0.0,-999,0.00,,---,1.40,VWS V14.01,2013-10-17 00:24:00,
2013-10-16 20:25:00,59.4,-99.9,-100.00,SW,224,0.0,0.0,-999,0.00,,---,1.40,VWS V14.01,2013-10-17 00:25:00,
2013-10-16 20:26:00,56.4,-99.9,-100.00,WSW,246,0.0,0.0,-999,0.00,,---,1.40,VWS V14.01,2013-10-17 00:26:00,
2013-10-16 20:27:00,59.3,-99.9,-100.00,SW,224,0.0,0.0,-999,0.00,,---,1.40,VWS V14.01,2013-10-17 00:27:00,
2013-10-16 20:28:00,56.4,-99.9,-100.00,WSW,246,0.0,0.0,-999,0.00,,---,1.40,VWS V14.01,2013-10-17 00:28:00,
2013-10-16 20:29:00,56.1,-99.9,-100.00,WSW,246,0.0,0.0,-999,0.00,,---,1.40,VWS V14.01,2013-10-17 00:29:00,
2013-10-16 20:30:00,56.4,-99.9,-100.00,WSW,246,0.0,0.0,-999,0.00,,---,1.40,VWS V14.01,2013-10-17 00:30:00,
2013-10-16 20:31:00,56.4,-99.9,-100.00,WSW,246,0.0,0.0,-999,0.00,,---,1.40,VWS V14.01,2013-10-17 00:31:00,
2013-10-16 20:32:00,56.1,-99.9,-100.00,WSW,246,0.0,0.0,-999,0.00,,---,1.40,VWS V14.01,2013-10-17 00:32:00,
2013-10-16 20:33:00,58.5,-99.9,-100.00,WSW,242,0.0,0.0,-999,0.00,,---,1.40,VWS V14.01,2013-10-17 00:33:00,
2013-10-16 20:34:00,56.4,-99.9,-100.00,WSW,246,0.0,0.0,-999,0.00,,---,1.40,VWS V14.01,2013-10-17 00:34:00,
2013-10-16 20:35:00,56.4,-99.9,-100.00,WSW,246,0.0,0.0,-999,0.00,,---,1.40,VWS V14.01,2013-10-17 00:35:00,
2013-10-16 20:36:00,56.4,-99.9,-100.00,WSW,246,0.0,0.0,-999,0.00,,---,1.40,VWS V14.01,2013-10-17 00:36:00,
2013-10-16 20:37:00,56.1,-99.9,-100.00,WSW,246,0.0,0.0,-999,0.00,,---,1.40,VWS V14.01,2013-10-17 00:37:00,
2013-10-16 20:38:00,58.0,-99.9,-100.00,WSW,242,0.0,0.0,-999,0.00,,---,1.40,VWS V14.01,2013-10-17 00:38:00,
2013-10-16 20:39:00,56.1,-99.9,-100.00,WSW,246,0.0,0.0,-999,0.00,,---,1.40,VWS V14.01,2013-10-17 00:39:00,
2013-10-16 20:40:00,58.0,-99.9,-100.00,WSW,242,0.0,0.0,-999,0.00,,---,1.40,VWS V14.01,2013-10-17 00:40:00,
2013-10-16 20:41:00,56.1,-99.9,-100.00,WSW,246,0.0,0.0,-999,0.00,,---,1.40,VWS V14.01,2013-10-17 00:41:00,
2013-10-16 20:42:00,58.2,-99.9,-100.00,WSW,242,0.0,0.0,-999,0.00,,---,1.40,VWS V14.01,2013-10-17 00:42:00,
2013-10-16 20:43:00,56.1,-99.9,-100.00,WSW,246,0.0,0.0,-999,0.00,,---,1.40,VWS V14.01,2013-10-17 00:43:00,
2013-10-16 20:44:00,56.1,-99.9,-100.00,WSW,246,0.0,0.0,-999,0.00,,---,1.40,VWS V14.01,2013-10-17 00:44:00,
2013-10-16 20:45:00,57.7,-99.9,-100.00,WSW,242,0.0,0.0,-999,0.00,,---,1.40,VWS V14.01,2013-10-17 00:45:00,
2013-10-16 20:46:00,56.4,-99.9,-100.00,WSW,246,0.0,0.0,-999,0.00,,---,1.40,VWS V14.01,2013-10-17 00:46:00,
2013-10-16 20:47:00,56.1,-99.9,-100.00,WSW,246,0.0,0.0,-999,0.00,,---,1.40,VWS V14.01,2013-10-17 00:47:00,
2013-10-16 20:48:00,55.6,-99.9,-100.00,WSW,246,0.0,0.0,-999,0.00,,---,1.40,VWS V14.01,2013-10-17 00:48:00,
2013-10-16 20:49:00,55.6,-99.9,-100.00,WSW,246,0.0,0.0,-999,0.00,,---,1.40,VWS V14.01,2013-10-17 00:49:00,
2013-10-16 20:50:00,57.4,-99.9,-100.00,WSW,242,0.0,0.0,-999,0.00,,---,1.40,VWS V14.01,2013-10-17 00:50:00,
2013-10-16 20:51:00,55.6,-99.9,-100.00,WSW,246,0.0,0.0,-999,0.00,,---,1.40,VWS V14.01,2013-10-17 00:51:00,
2013-10-16 20:52:00,55.6,-99.9,-100.00,WSW,246,0.0,0.0,-999,0.00,,---,1.40,VWS V14.01,2013-10-17 00:52:00,
2013-10-16 20:53:00,55.3,-99.9,-100.00,WSW,246,0.0,0.0,-999,0.00,,---,1.40,VWS V14.01,2013-10-17 00:53:00,
2013-10-16 20:54:00,55.3,-99.9,-100.00,WSW,246,0.0,0.0,-999,0.00,,---,1.40,VWS V14.01,2013-10-17 00:54:00,
2013-10-16 20:55:00,57.2,-99.9,-100.00,WSW,242,0.0,0.0,-999,0.00,,---,1.40,VWS V14.01,2013-10-17 00:55:00,
2013-10-16 20:56:00,55.0,-99.9,-100.00,WSW,246,0.0,0.0,-999,0.00,,---,1.40,VWS V14.01,2013-10-17 00:56:00,
2013-10-16 20:57:00,55.3,-99.9,-100.00,WSW,246,0.0,0.0,-999,0.00,,---,1.40,VWS V14.01,2013-10-17 00:57:00,
2013-10-16 20:58:00,55.0,-99.9,-100.00,WSW,246,0.0,0.0,-999,0.00,,---,1.40,VWS V14.01,2013-10-17 00:58:00,
2013-10-16 20:59:00,57.2,-99.9,-100.00,WNW,298,0.0,0.0,-999,0.00,,---,1.40,VWS V14.01,2013-10-17 00:59:00,
2013-10-16 21:00:00,54.8,-99.9,-100.00,NNW,335,0.0,0.0,-999,0.00,,---,1.40,VWS V14.01,2013-10-17 01:00:00,
2013-10-16 21:01:00,54.8,-99.9,-100.00,NNW,335,0.0,0.0,-999,0.00,,---,1.40,VWS V14.01,2013-10-17 01:01:00,
2013-10-16 21:02:00,54.8,-99.9,-100.00,NNW,335,0.0,0.0,-999,0.00,,---,1.40,VWS V14.01,2013-10-17 01:02:00,
2013-10-16 21:03:00,55.0,-99.9,-100.00,NNW,335,0.0,0.0,-999,0.00,,---,1.40,VWS V14.01,2013-10-17 01:03:00,
2013-10-16 21:04:00,57.2,-99.9,-100.00,WNW,298,0.0,0.0,-999,0.00,,---,1.40,VWS V14.01,2013-10-17 01:04:00,
2013-10-16 21:05:00,54.8,-99.9,-100.00,NNW,335,0.0,0.0,-999,0.00,,---,1.40,VWS V14.01,2013-10-17 01:05:00,
2013-10-16 21:06:00,54.8,-99.9,-100.00,NNW,335,0.0,0.0,-999,0.00,,---,1.40,VWS V14.01,2013-10-17 01:06:00,
2013-10-16 21:07:00,54.5,-99.9,-100.00,NNW,335,0.0,0.0,-999,0.00,,---,1.40,VWS V14.01,2013-10-17 01:07:00,
2013-10-16 21:08:00,54.8,-99.9,-100.00,NNW,335,0.0,0.0,-999,0.00,,---,1.40,VWS V14.01,2013-10-17 01:08:00,
2013-10-16 21:09:00,57.2,-99.9,-100.00,SW,236,0.0,0.0,-999,0.00,,---,1.40,VWS V14.01,2013-10-17 01:09:00,
2013-10-16 21:10:00,54.5,-99.9,-100.00,NNW,335,0.0,0.0,-999,0.00,,---,1.40,VWS V14.01,2013-10-17 01:10:00,
2013-10-16 21:11:00,54.5,-99.9,-100.00,NNW,335,0.0,0.0,-999,0.00,,---,1.40,VWS V14.01,2013-10-17 01:11:00,
2013-10-16 21:12:00,54.5,-99.9,-100.00,NNW,335,0.0,0.0,-999,0.00,,---,1.40,VWS V14.01,2013-10-17 01:12:00,
2013-10-16 21:13:00,54.2,-99.9,-100.00,NNW,335,0.0,0.0,-999,0.00,,---,1.40,VWS V14.01,2013-10-17 01:13:00,
2013-10-16 21:14:00,56.6,-99.9,-100.00,SW,236,0.0,0.0,-999,0.00,,---,1.40,VWS V14.01,2013-10-17 01:14:00,
2013-10-16 21:15:00,54.2,-99.9,-100.00,NNW,335,0.0,0.0,-999,0.00,,---,1.40,VWS V14.01,2013-10-17 01:15:00,
2013-10-16 21:16:00,56.9,-99.9,-100.00,WSW,246,0.0,3.0,-999,0.00,,---,1.40,VWS V14.01,2013-10-17 01:16:00,
2013-10-16 21:17:00,54.0,-99.9,-100.00,NNW,335,0.0,0.0,-999,0.00,,---,1.40,VWS V14.01,2013-10-17 01:17:00,
2013-10-16 21:18:00,54.2,-99.9,-100.00,NNW,335,0.0,0.0,-999,0.00,,---,1.40,VWS V14.01,2013-10-17 01:18:00,
2013-10-16 21:19:00,54.2,-99.9,-100.00,NNW,335,0.0,0.0,-999,0.00,,---,1.40,VWS V14.01,2013-10-17 01:19:00,
2013-10-16 21:20:00,56.6,-99.9,-100.00,WSW,246,0.0,0.0,-999,0.00,,---,1.40,VWS V14.01,2013-10-17 01:20:00,
2013-10-16 21:21:00,54.0,-99.9,-100.00,NNW,335,0.0,0.0,-999,0.00,,---,1.40,VWS V14.01,2013-10-17 01:21:00,
2013-10-16 21:22:00,54.2,-99.9,-100.00,NNW,335,0.0,0.0,-999,0.00,,---,1.40,VWS V14.01,2013-10-17 01:22:00,
2013-10-16 21:23:00,54.0,-99.9,-100.00,NNW,335,0.0,0.0,-999,0.00,,---,1.40,VWS V14.01,2013-10-17 01:23:00,
2013-10-16 21:24:00,54.0,-99.9,-100.00,NNW,335,0.0,0.0,-999,0.00,,---,1.40,VWS V14.01,2013-10-17 01:24:00,
2013-10-16 21:25:00,56.4,-99.9,-100.00,WSW,246,0.0,0.0,-999,0.00,,---,1.40,VWS V14.01,2013-10-17 01:25:00,
2013-10-16 21:26:00,53.7,-99.9,-100.00,NNW,335,0.0,0.0,-999,0.00,,---,1.40,VWS V14.01,2013-10-17 01:26:00,
2013-10-16 21:27:00,54.0,-99.9,-100.00,NNW,335,0.0,0.0,-999,0.00,,---,1.40,VWS V14.01,2013-10-17 01:27:00,
2013-10-16 21:28:00,53.7,-99.9,-100.00,NNW,335,0.0,0.0,-999,0.00,,---,1.40,VWS V14.01,2013-10-17 01:28:00,
2013-10-16 21:29:00,54.0,-99.9,-100.00,NNW,335,0.0,0.0,-999,0.00,,---,1.40,VWS V14.01,2013-10-17 01:29:00,
2013-10-16 21:30:00,56.4,-99.9,-100.00,WSW,246,0.0,0.0,-999,0.00,,---,1.40,VWS V14.01,2013-10-17 01:30:00,
2013-10-16 21:31:00,56.1,-99.9,-100.00,WSW,246,0.0,0.0,-999,0.00,,---,1.40,VWS V14.01,2013-10-17 01:31:00,
2013-10-16 21:32:00,53.5,-99.9,-100.00,NNW,335,0.0,0.0,-999,0.00,,---,1.40,VWS V14.01,2013-10-17 01:32:00,
2013-10-16 21:33:00,53.5,-99.9,-100.00,NNW,335,0.0,0.0,-999,0.00,,---,1.40,VWS V14.01,2013-10-17 01:33:00,
2013-10-16 21:34:00,56.1,-99.9,-100.00,WSW,246,0.0,0.0,-999,0.00,,---,1.40,VWS V14.01,2013-10-17 01:34:00,
2013-10-16 21:35:00,53.2,-99.9,-100.00,NNW,335,0.0,0.0,-999,0.00,,---,1.40,VWS V14.01,2013-10-17 01:35:00,
2013-10-16 21:36:00,56.4,-99.9,-100.00,WSW,246,0.0,0.0,-999,0.00,,---,1.40,VWS V14.01,2013-10-17 01:36:00,
2013-10-16 21:37:00,53.2,-99.9,-100.00,NNW,335,0.0,0.0,-999,0.00,,---,1.40,VWS V14.01,2013-10-17 01:37:00,
2013-10-16 21:38:00,53.2,-99.9,-100.00,NNW,335,0.0,0.0,-999,0.00,,---,1.40,VWS V14.01,2013-10-17 01:38:00,
2013-10-16 21:39:00,52.8,-99.9,-100.00,NNW,335,0.0,0.0,-999,0.00,,---,1.40,VWS V14.01,2013-10-17 01:39:00,
2013-10-16 21:40:00,53.2,-99.9,-100.00,NNW,335,0.0,0.0,-999,0.00,,---,1.40,VWS V14.01,2013-10-17 01:40:00,
2013-10-16 21:41:00,56.4,-99.9,-100.00,WSW,246,0.0,0.0,-999,0.00,,---,1.40,VWS V14.01,2013-10-17 01:41:00,
2013-10-16 21:42:00,53.0,-99.9,-100.00,NNW,335,0.0,0.0,-999,0.00,,---,1.40,VWS V14.01,2013-10-17 01:42:00,
2013-10-16 21:43:00,53.0,-99.9,-100.00,NNW,335,0.0,0.0,-999,0.00,,---,1.40,VWS V14.01,2013-10-17 01:43:00,
2013-10-16 21:44:00,53.2,-99.9,-100.00,NNW,335,0.0,0.0,-999,0.00,,---,1.40,VWS V14.01,2013-10-17 01:44:00,
2013-10-16 21:45:00,53.0,-99.9,-100.00,NNW,335,0.0,0.0,-999,0.00,,---,1.40,VWS V14.01,2013-10-17 01:45:00,
2013-10-16 21:46:00,55.6,-99.9,-100.00,WSW,246,0.0,0.0,-999,0.00,,---,1.40,VWS V14.01,2013-10-17 01:46:00,
2013-10-16 21:47:00,53.2,-99.9,-100.00,NNW,335,0.0,0.0,-999,0.00,,---,1.40,VWS V14.01,2013-10-17 01:47:00,
2013-10-16 21:48:00,53.0,-99.9,-100.00,NNW,335,0.0,0.0,-999,0.00,,---,1.40,VWS V14.01,2013-10-17 01:48:00,
2013-10-16 21:49:00,52.4,-99.9,-100.00,NNW,335,0.0,0.0,-999,0.00,,---,1.40,VWS V14.01,2013-10-17 01:49:00,
2013-10-16 21:50:00,55.6,-99.9,-100.00,WSW,246,0.0,0.0,-999,0.00,,---,1.40,VWS V14.01,2013-10-17 01:50:00,
2013-10-16 21:51:00,52.8,-99.9,-100.00,NNW,335,0.0,0.0,-999,0.00,,---,1.40,VWS V14.01,2013-10-17 01:51:00,
2013-10-16 21:52:00,52.4,-99.9,-100.00,NNW,335,0.0,0.0,-999,0.00,,---,1.40,VWS V14.01,2013-10-17 01:52:00,
2013-10-16 21:53:00,52.4,-99.9,-100.00,NNW,335,0.0,0.0,-999,0.00,,---,1.40,VWS V14.01,2013-10-17 01:53:00,
2013-10-16 21:54:00,52.8,-99.9,-100.00,NNW,335,0.0,0.0,-999,0.00,,---,1.40,VWS V14.01,2013-10-17 01:54:00,
2013-10-16 21:55:00,55.3,-99.9,-100.00,WSW,246,0.0,0.0,-999,0.00,,---,1.40,VWS V14.01,2013-10-17 01:55:00,
2013-10-16 21:56:00,55.0,-99.9,-100.00,WSW,246,0.0,0.0,-999,0.00,,---,1.40,VWS V14.01,2013-10-17 01:56:00,
2013-10-16 21:57:00,52.4,-99.9,-100.00,NNW,335,0.0,0.0,-999,0.00,,---,1.40,VWS V14.01,2013-10-17 01:57:00,
2013-10-16 21:58:00,52.2,-99.9,-100.00,NNW,335,0.0,0.0,-999,0.00,,---,1.40,VWS V14.01,2013-10-17 01:58:00,
2013-10-16 21:59:00,52.4,-99.9,-100.00,NNW,335,0.0,0.0,-999,0.00,,---,1.40,VWS V14.01,2013-10-17 01:59:00,
2013-10-16 22:00:00,55.0,-99.9,-100.00,WSW,246,0.0,0.0,-999,0.00,,---,1.40,VWS V14.01,2013-10-17 02:00:00,
2013-10-16 22:01:00,55.0,-99.9,-100.00,NNW,335,0.0,4.7,-999,0.00,,---,1.40,VWS V14.01,2013-10-17 02:01:00,
2013-10-16 22:02:00,51.7,-99.9,-100.00,NNW,335,0.0,0.0,-999,0.00,,---,1.40,VWS V14.01,2013-10-17 02:02:00,
2013-10-16 22:03:00,52.0,-99.9,-100.00,NNW,335,0.0,0.0,-999,0.00,,---,1.40,VWS V14.01,2013-10-17 02:03:00,
2013-10-16 22:04:00,51.4,-99.9,-100.00,NNW,335,0.0,0.0,-999,0.00,,---,1.40,VWS V14.01,2013-10-17 02:04:00,
2013-10-16 22:05:00,55.0,-99.9,-100.00,NNW,335,0.0,0.0,-999,0.00,,---,1.40,VWS V14.01,2013-10-17 02:05:00,
2013-10-16 22:06:00,54.8,-99.9,-100.00,NNW,335,0.0,0.0,-999,0.00,,---,1.40,VWS V14.01,2013-10-17 02:06:00,
2013-10-16 22:07:00,54.5,-99.9,-100.00,NNW,335,0.0,0.0,-999,0.00,,---,1.40,VWS V14.01,2013-10-17 02:07:00,
2013-10-16 22:08:00,51.7,-99.9,-100.00,NNW,335,0.0,0.0,-999,0.00,,---,1.40,VWS V14.01,2013-10-17 02:08:00,
2013-10-16 22:09:00,51.7,-99.9,-100.00,NNW,335,0.0,0.0,-999,0.00,,---,1.40,VWS V14.01,2013-10-17 02:09:00,
2013-10-16 22:10:00,54.5,-99.9,-100.00,NNW,335,0.0,0.0,-999,0.00,,---,1.40,VWS V14.01,2013-10-17 02:10:00,
2013-10-16 22:11:00,54.8,-99.9,-100.00,NNW,335,0.0,0.0,-999,0.00,,---,1.40,VWS V14.01,2013-10-17 02:11:00,
2013-10-16 22:12:00,54.8,-99.9,-100.00,NNW,335,0.0,0.0,-999,0.00,,---,1.40,VWS V14.01,2013-10-17 02:12:00,
2013-10-16 22:13:00,51.2,-99.9,-100.00,NNW,335,0.0,0.0,-999,0.00,,---,1.40,VWS V14.01,2013-10-17 02:13:00,
2013-10-16 22:14:00,50.9,-99.9,-100.00,NNW,335,0.0,0.0,-999,0.00,,---,1.40,VWS V14.01,2013-10-17 02:14:00,
2013-10-16 22:15:00,54.0,-99.9,-100.00,NNW,335,0.0,0.0,-999,0.00,,---,1.40,VWS V14.01,2013-10-17 02:15:00,
2013-10-16 22:16:00,54.2,-99.9,-100.00,NNW,335,0.0,0.0,-999,0.00,,---,1.40,VWS V14.01,2013-10-17 02:16:00,
2013-10-16 22:17:00,54.5,-99.9,-100.00,NNW,335,0.0,0.0,-999,0.00,,---,1.40,VWS V14.01,2013-10-17 02:17:00,
2013-10-16 22:18:00,50.7,-99.9,-100.00,NNW,335,0.0,0.0,-999,0.00,,---,1.40,VWS V14.01,2013-10-17 02:18:00,
2013-10-16 22:19:00,50.9,-99.9,-100.00,NNW,335,0.0,0.0,-999,0.00,,---,1.40,VWS V14.01,2013-10-17 02:19:00,
2013-10-16 22:20:00,54.5,-99.9,-100.00,NNW,335,0.0,0.0,-999,0.00,,---,1.40,VWS V14.01,2013-10-17 02:20:00,
2013-10-16 22:21:00,54.2,-99.9,-100.00,NNW,335,0.0,0.0,-999,0.00,,---,1.40,VWS V14.01,2013-10-17 02:21:00,
2013-10-16 22:22:00,54.0,-99.9,-100.00,NNW,335,0.0,0.0,-999,0.00,,---,1.40,VWS V14.01,2013-10-17 02:22:00,
2013-10-16 22:23:00,50.4,-99.9,-100.00,NNW,335,0.0,0.0,-999,0.00,,---,1.40,VWS V14.01,2013-10-17 02:23:00,
2013-10-16 22:24:00,50.9,-99.9,-100.00,NNW,335,0.0,0.0,-999,0.00,,---,1.40,VWS V14.01,2013-10-17 02:24:00,
2013-10-16 22:25:00,54.0,-99.9,-100.00,NNW,335,0.0,0.0,-999,0.00,,---,1.40,VWS V14.01,2013-10-17 02:25:00,
2013-10-16 22:26:00,54.0,-99.9,-100.00,NNW,335,0.0,0.0,-999,0.00,,---,1.40,VWS V14.01,2013-10-17 02:26:00,
2013-10-16 22:27:00,54.0,-99.9,-100.00,NNW,335,0.0,0.0,-999,0.00,,---,1.40,VWS V14.01,2013-10-17 02:27:00,
2013-10-16 22:28:00,50.1,-99.9,-100.00,NNW,335,0.0,0.0,-999,0.00,,---,1.40,VWS V14.01,2013-10-17 02:28:00,
2013-10-16 22:29:00,50.4,-99.9,-100.00,NNW,335,0.0,0.0,-999,0.00,,---,1.40,VWS V14.01,2013-10-17 02:29:00,
2013-10-16 22:30:00,50.7,-99.9,-100.00,NNW,335,0.0,0.0,-999,0.00,,---,1.40,VWS V14.01,2013-10-17 02:30:00,
2013-10-16 22:31:00,53.7,-99.9,-100.00,NNW,335,0.0,0.0,-999,0.00,,---,1.40,VWS V14.01,2013-10-17 02:31:00,
2013-10-16 22:32:00,53.2,-99.9,-100.00,NNW,335,0.0,0.0,-999,0.00,,---,1.40,VWS V14.01,2013-10-17 02:32:00,
2013-10-16 22:33:00,50.1,-99.9,-100.00,NNW,335,0.0,0.0,-999,0.00,,---,1.40,VWS V14.01,2013-10-17 02:33:00,
2013-10-16 22:34:00,50.7,-99.9,-100.00,NNW,335,0.0,0.0,-999,0.00,,---,1.40,VWS V14.01,2013-10-17 02:34:00,
2013-10-16 22:35:00,50.7,-99.9,-100.00,NNW,335,0.0,0.0,-999,0.00,,---,1.40,VWS V14.01,2013-10-17 02:35:00,
2013-10-16 22:36:00,53.5,-99.9,-100.00,NNW,335,0.0,0.0,-999,0.00,,---,1.40,VWS V14.01,2013-10-17 02:36:00,
2013-10-16 22:37:00,53.2,-99.9,-100.00,NNW,335,0.0,0.0,-999,0.00,,---,1.40,VWS V14.01,2013-10-17 02:37:00,
2013-10-16 22:38:00,50.1,-99.9,-100.00,NNW,335,0.0,0.0,-999,0.00,,---,1.40,VWS V14.01,2013-10-17 02:38:00,
2013-10-16 22:39:00,50.1,-99.9,-100.00,NNW,335,0.0,0.0,-999,0.00,,---,1.40,VWS V14.01,2013-10-17 02:39:00,
2013-10-16 22:40:00,50.4,-99.9,-100.00,NNW,335,0.0,0.0,-999,0.00,,---,1.40,VWS V14.01,2013-10-17 02:40:00,
2013-10-16 22:41:00,53.0,-99.9,-100.00,NNW,335,0.0,0.0,-999,0.00,,---,1.40,VWS V14.01,2013-10-17 02:41:00,
2013-10-16 22:42:00,53.0,-99.9,-100.00,NNW,335,0.0,0.0,-999,0.00,,---,1.40,VWS V14.01,2013-10-17 02:42:00,
2013-10-16 22:43:00,50.1,-99.9,-100.00,NNW,335,0.0,0.0,-999,0.00,,---,1.40,VWS V14.01,2013-10-17 02:43:00,
2013-10-16 22:44:00,50.1,-99.9,-100.00,NNW,335,0.0,0.0,-999,0.00,,---,1.40,VWS V14.01,2013-10-17 02:44:00,
2013-10-16 22:45:00,49.9,-99.9,-100.00,NNW,335,0.0,0.0,-999,0.00,,---,1.40,VWS V14.01,2013-10-17 02:45:00,
2013-10-16 22:46:00,53.0,-99.9,-100.00,NNW,335,0.0,0.0,-999,0.00,,---,1.40,VWS V14.01,2013-10-17 02:46:00,
2013-10-16 22:47:00,52.8,-99.9,-100.00,NNW,335,0.0,0.0,-999,0.00,,---,1.40,VWS V14.01,2013-10-17 02:47:00,
2013-10-16 22:48:00,49.9,-99.9,-100.00,NNW,335,0.0,0.0,-999,0.00,,---,1.40,VWS V14.01,2013-10-17 02:48:00,
2013-10-16 22:49:00,50.1,-99.9,-100.00,NNW,335,0.0,0.0,-999,0.00,,---,1.40,VWS V14.01,2013-10-17 02:49:00,
2013-10-16 22:50:00,50.1,-99.9,-100.00,NNW,335,0.0,0.0,-999,0.00,,---,1.40,VWS V14.01,2013-10-17 02:50:00,
2013-10-16 22:51:00,50.1,-99.9,-100.00,NNW,335,0.0,0.0,-999,0.00,,---,1.40,VWS V14.01,2013-10-17 02:51:00,
2013-10-16 22:52:00,52.4,-99.9,-100.00,NNW,335,0.0,0.0,-999,0.00,,---,1.40,VWS V14.01,2013-10-17 02:52:00,
2013-10-16 22:53:00,49.9,-99.9,-100.00,NNW,335,0.0,0.0,-999,0.00,,---,1.40,VWS V14.01,2013-10-17 02:53:00,
2013-10-16 22:54:00,52.2,-99.9,-100.00,NNW,335,0.0,0.0,-999,0.00,,---,1.40,VWS V14.01,2013-10-17 02:54:00,
2013-10-16 22:55:00,50.1,-99.9,-100.00,NNW,335,0.0,0.0,-999,0.00,,---,1.40,VWS V14.01,2013-10-17 02:55:00,
2013-10-16 22:56:00,49.6,-99.9,-100.00,NNW,335,0.0,0.0,-999,0.00,,---,1.40,VWS V14.01,2013-10-17 02:56:00,
2013-10-16 22:57:00,52.4,-99.9,-100.00,NNW,335,0.0,0.0,-999,0.00,,---,1.40,VWS V14.01,2013-10-17 02:57:00,
2013-10-16 22:58:00,50.1,-99.9,-100.00,NNW,335,0.0,0.0,-999,0.00,,---,1.40,VWS V14.01,2013-10-17 02:58:00,
2013-10-16 22:59:00,52.0,-99.9,-100.00,NNW,335,0.0,0.0,-999,0.00,,---,1.40,VWS V14.01,2013-10-17 02:59:00,
2013-10-16 23:00:00,50.4,-99.9,-100.00,NNW,335,0.0,0.0,-999,0.00,,---,1.40,VWS V14.01,2013-10-17 03:00:00,
2013-10-16 23:01:00,50.4,-99.9,-100.00,NNW,335,0.0,0.0,-999,0.00,,---,1.40,VWS V14.01,2013-10-17 03:01:00,
2013-10-16 23:02:00,52.0,-99.9,-100.00,NNW,335,0.0,0.0,-999,0.00,,---,1.40,VWS V14.01,2013-10-17 03:02:00,
2013-10-16 23:03:00,52.0,-99.9,-100.00,NNW,335,0.0,0.0,-999,0.00,,---,1.40,VWS V14.01,2013-10-17 03:03:00,
2013-10-16 23:04:00,49.9,-99.9,-100.00,NNW,335,0.0,0.0,-999,0.00,,---,1.40,VWS V14.01,2013-10-17 03:04:00,
2013-10-16 23:05:00,49.6,-99.9,-100.00,NNW,335,0.0,0.0,-999,0.00,,---,1.40,VWS V14.01,2013-10-17 03:05:00,
2013-10-16 23:06:00,50.1,-99.9,-100.00,NNW,335,0.0,0.0,-999,0.00,,---,1.40,VWS V14.01,2013-10-17 03:06:00,
2013-10-16 23:07:00,51.7,-99.9,-100.00,NNW,335,0.0,0.0,-999,0.00,,---,1.40,VWS V14.01,2013-10-17 03:07:00,
2013-10-16 23:08:00,51.4,-99.9,-100.00,NNW,335,0.0,0.0,-999,0.00,,---,1.40,VWS V14.01,2013-10-17 03:08:00,
2013-10-16 23:09:00,50.1,-99.9,-100.00,NNW,335,0.0,0.0,-999,0.00,,---,1.40,VWS V14.01,2013-10-17 03:09:00,
2013-10-16 23:10:00,50.1,-99.9,-100.00,NNW,335,0.0,0.0,-999,0.00,,---,1.40,VWS V14.01,2013-10-17 03:10:00,
2013-10-16 23:11:00,50.1,-99.9,-100.00,NNW,335,0.0,0.0,-999,0.00,,---,1.40,VWS V14.01,2013-10-17 03:11:00,
2013-10-16 23:12:00,50.9,-99.9,-100.00,NNW,335,0.0,0.0,-999,0.00,,---,1.40,VWS V14.01,2013-10-17 03:12:00,
2013-10-16 23:13:00,50.9,-99.9,-100.00,NNW,335,0.0,0.0,-999,0.00,,---,1.40,VWS V14.01,2013-10-17 03:13:00,
2013-10-16 23:14:00,49.6,-99.9,-100.00,NNW,335,0.0,0.0,-999,0.00,,---,1.40,VWS V14.01,2013-10-17 03:14:00,
2013-10-16 23:15:00,50.1,-99.9,-100.00,NNW,335,0.0,0.0,-999,0.00,,---,1.40,VWS V14.01,2013-10-17 03:15:00,
2013-10-16 23:16:00,49.9,-99.9,-100.00,NNW,335,0.0,0.0,-999,0.00,,---,1.40,VWS V14.01,2013-10-17 03:16:00,
2013-10-16 23:17:00,51.2,-99.9,-100.00,NNW,335,0.0,0.0,-999,0.00,,---,1.40,VWS V14.01,2013-10-17 03:17:00,
2013-10-16 23:18:00,51.2,-99.9,-100.00,NNW,335,0.0,0.0,-999,0.00,,---,1.40,VWS V14.01,2013-10-17 03:18:00,
2013-10-16 23:19:00,50.1,-99.9,-100.00,NNW,335,0.0,0.0,-999,0.00,,---,1.40,VWS V14.01,2013-10-17 03:19:00,
2013-10-16 23:20:00,50.1,-99.9,-100.00,NNW,335,0.0,0.0,-999,0.00,,---,1.40,VWS V14.01,2013-10-17 03:20:00,
2013-10-16 23:21:00,49.9,-99.9,-100.00,NNW,335,0.0,0.0,-999,0.00,,---,1.40,VWS V14.01,2013-10-17 03:21:00,
2013-10-16 23:22:00,50.1,-99.9,-100.00,NNW,335,0.0,0.0,-999,0.00,,---,1.40,VWS V14.01,2013-10-17 03:22:00,
2013-10-16 23:23:00,50.4,-99.9,-100.00,NNW,335,0.0,0.0,-999,0.00,,---,1.40,VWS V14.01,2013-10-17 03:23:00,
2013-10-16 23:24:00,49.9,-99.9,-100.00,NNW,335,0.0,0.0,-999,0.00,,---,1.40,VWS V14.01,2013-10-17 03:24:00,
2013-10-16 23:25:00,50.4,-99.9,-100.00,NNW,335,0.0,0.0,-999,0.00,,---,1.40,VWS V14.01,2013-10-17 03:25:00,
2013-10-16 23:26:00,50.1,-99.9,-100.00,NNW,335,0.0,0.0,-999,0.00,,---,1.40,VWS V14.01,2013-10-17 03:26:00,
2013-10-16 23:27:00,50.1,-99.9,-100.00,NNW,335,0.0,0.0,-999,0.00,,---,1.40,VWS V14.01,2013-10-17 03:27:00,
2013-10-16 23:28:00,50.7,-99.9,-100.00,NNW,335,0.0,0.0,-999,0.00,,---,1.40,VWS V14.01,2013-10-17 03:28:00,
2013-10-16 23:29:00,49.6,-99.9,-100.00,NNW,335,0.0,0.0,-999,0.00,,---,1.40,VWS V14.01,2013-10-17 03:29:00,
2013-10-16 23:30:00,50.1,-99.9,-100.00,NNW,335,0.0,0.0,-999,0.00,,---,1.40,VWS V14.01,2013-10-17 03:30:00,
2013-10-16 23:31:00,49.6,-99.9,-100.00,NNW,335,0.0,0.0,-999,0.00,,---,1.40,VWS V14.01,2013-10-17 03:31:00,
2013-10-16 23:32:00,49.4,-99.9,-100.00,NNW,335,0.0,0.0,-999,0.00,,---,1.40,VWS V14.01,2013-10-17 03:32:00,
2013-10-16 23:33:00,50.1,-99.9,-100.00,NNW,335,0.0,0.0,-999,0.00,,---,1.40,VWS V14.01,2013-10-17 03:33:00,
2013-10-16 23:34:00,50.9,-99.9,-100.00,NNW,335,0.0,0.0,-999,0.00,,---,1.40,VWS V14.01,2013-10-17 03:34:00,
2013-10-16 23:35:00,49.9,-99.9,-100.00,NNW,335,0.0,0.0,-999,0.00,,---,1.40,VWS V14.01,2013-10-17 03:35:00,
2013-10-16 23:36:00,50.1,-99.9,-100.00,NNW,335,0.0,0.0,-999,0.00,,---,1.40,VWS V14.01,2013-10-17 03:36:00,
2013-10-16 23:37:00,49.9,-99.9,-100.00,NNW,335,0.0,0.0,-999,0.00,,---,1.40,VWS V14.01,2013-10-17 03:37:00,
2013-10-16 23:38:00,50.4,-99.9,-100.00,NNW,335,0.0,0.0,-999,0.00,,---,1.40,VWS V14.01,2013-10-17 03:38:00,
2013-10-16 23:39:00,50.7,-99.9,-100.00,NNW,335,0.0,0.0,-999,0.00,,---,1.40,VWS V14.01,2013-10-17 03:39:00,
2013-10-16 23:40:00,50.1,-99.9,-100.00,NNW,335,0.0,0.0,-999,0.00,,---,1.40,VWS V14.01,2013-10-17 03:40:00,
2013-10-16 23:41:00,50.4,-99.9,-100.00,NNW,335,0.0,0.0,-999,0.00,,---,1.40,VWS V14.01,2013-10-17 03:41:00,
2013-10-16 23:42:00,50.4,-99.9,-100.00,NNW,335,0.0,0.0,-999,0.00,,---,1.40,VWS V14.01,2013-10-17 03:42:00,
2013-10-16 23:43:00,50.1,-99.9,-100.00,NNW,335,0.0,0.0,-999,0.00,,---,1.40,VWS V14.01,2013-10-17 03:43:00,
2013-10-16 23:44:00,50.1,-99.9,-100.00,NNW,335,0.0,0.0,-999,0.00,,---,1.40,VWS V14.01,2013-10-17 03:44:00,
2013-10-16 23:45:00,50.7,-99.9,-100.00,NNW,335,0.0,0.0,-999,0.00,,---,1.40,VWS V14.01,2013-10-17 03:45:00,
2013-10-16 23:46:00,49.9,-99.9,-100.00,NNW,335,0.0,0.0,-999,0.00,,---,1.40,VWS V14.01,2013-10-17 03:46:00,
2013-10-16 23:47:00,50.9,-99.9,-100.00,NNW,335,0.0,0.0,-999,0.00,,---,1.40,VWS V14.01,2013-10-17 03:47:00,
2013-10-16 23:48:00,50.1,-99.9,-100.00,NNW,335,0.0,0.0,-999,0.00,,---,1.40,VWS V14.01,2013-10-17 03:48:00,
2013-10-16 23:49:00,50.1,-99.9,-100.00,NNW,335,0.0,0.0,-999,0.00,,---,1.40,VWS V14.01,2013-10-17 03:49:00,
2013-10-16 23:50:00,50.9,-99.9,-100.00,NNW,335,0.0,0.0,-999,0.00,,---,1.40,VWS V14.01,2013-10-17 03:50:00,
2013-10-16 23:51:00,50.1,-99.9,-100.00,NNW,335,0.0,0.0,-999,0.00,,---,1.40,VWS V14.01,2013-10-17 03:51:00,
2013-10-16 23:52:00,50.9,-99.9,-100.00,NNW,335,0.0,0.0,-999,0.00,,---,1.40,VWS V14.01,2013-10-17 03:52:00,
2013-10-16 23:53:00,50.9,-99.9,-100.00,NNW,335,0.0,0.0,-999,0.00,,---,1.40,VWS V14.01,2013-10-17 03:53:00,
2013-10-16 23:54:00,49.9,-99.9,-100.00,NNW,335,0.0,0.0,-999,0.00,,---,1.40,VWS V14.01,2013-10-17 03:54:00,
2013-10-16 23:55:00,50.9,-99.9,-100.00,NNW,335,0.0,0.0,-999,0.00,,---,1.40,VWS V14.01,2013-10-17 03:55:00,
2013-10-16 23:56:00,50.1,-99.9,-100.00,NNW,335,0.0,0.0,-999,0.00,,---,1.40,VWS V14.01,2013-10-17 03:56:00,
2013-10-16 23:57:00,50.9,-99.9,-100.00,NNW,335,0.0,0.0,-999,0.00,,---,1.40,VWS V14.01,2013-10-17 03:57:00,
2013-10-16 23:58:00,50.9,-99.9,-100.00,NNW,335,0.0,0.0,-999,0.00,,---,1.40,VWS V14.01,2013-10-17 03:58:00,
2013-10-16 23:59:00,50.1,-99.9,-100.00,NNW,335,0.0,0.0,-999,0.00,,---,1.40,VWS V14.01,2013-10-17 03:59:00,